TimeEDT,TemperatureF,Dew PointF,Humidity,Sea Level PressureIn,VisibilityMPH,Wind Direction,Wind SpeedMPH,Gust SpeedMPH,PrecipitationIn,Events,Conditions,WindDirDegrees,DateUTC
12:15 AM,58.5,57.7,97,30.07,10.0,NNE,3.5,-,N/A,,Scattered Clouds,30,2013-07-03 04:15:00
12:35 AM,58.8,57.9,97,30.08,10.0,Calm,Calm,-,N/A,,Scattered Clouds,0,2013-07-03 04:35:00
12:55 AM,59.0,58.3,97,30.09,10.0,WNW,3.5,-,N/A,,Overcast,300,2013-07-03 04:55:00
1:15 AM,59.0,58.5,98,30.08,10.0,North,3.5,-,N/A,,Overcast,350,2013-07-03 05:15:00
1:34 AM,59.9,58.1,94,30.08,10.0,NE,4.6,-,N/A,,Overcast,40,2013-07-03 05:34:00
1:55 AM,60.8,56.8,87,30.07,10.0,ENE,5.8,-,N/A,,Overcast,60,2013-07-03 05:55:00
2:14 AM,60.8,54.5,80,30.07,10.0,NE,5.8,-,N/A,,Overcast,50,2013-07-03 06:14:00
2:35 AM,60.8,53.6,77,30.07,10.0,NE,6.9,-,N/A,,Overcast,50,2013-07-03 06:35:00
2:54 AM,59.7,52.5,77,30.06,10.0,ENE,5.8,-,N/A,,Mostly Cloudy,60,2013-07-03 06:54:00
3:15 AM,58.6,53.1,82,30.06,10.0,ENE,5.8,-,N/A,,Scattered Clouds,60,2013-07-03 07:15:00
3:34 AM,58.6,52.7,81,30.05,10.0,ENE,6.9,-,N/A,,Clear,60,2013-07-03 07:34:00
3:54 AM,58.6,52.7,81,30.06,10.0,ENE,4.6,-,N/A,,Scattered Clouds,60,2013-07-03 07:54:00
4:15 AM,58.5,52.5,81,30.06,10.0,ENE,5.8,-,N/A,,Clear,60,2013-07-03 08:15:00
4:34 AM,58.1,53.6,85,30.05,10.0,NE,6.9,-,N/A,,Clear,50,2013-07-03 08:34:00
4:55 AM,58.3,54.5,87,30.05,10.0,NE,6.9,-,N/A,,Mostly Cloudy,50,2013-07-03 08:55:00
5:14 AM,59.0,54.7,86,30.05,10.0,ENE,5.8,-,N/A,,Overcast,60,2013-07-03 09:14:00
5:35 AM,59.0,55.4,88,30.05,10.0,ENE,6.9,-,N/A,,Overcast,60,2013-07-03 09:35:00
5:55 AM,59.2,55.8,88,30.06,10.0,ENE,5.8,-,N/A,,Overcast,60,2013-07-03 09:55:00
6:14 AM,59.4,55.6,87,30.07,10.0,ENE,8.1,-,N/A,,Overcast,60,2013-07-03 10:14:00
6:35 AM,59.5,56.1,88,30.07,10.0,ENE,8.1,-,N/A,,Mostly Cloudy,60,2013-07-03 10:35:00
6:54 AM,59.7,56.3,88,30.07,10.0,NE,5.8,-,N/A,,Overcast,40,2013-07-03 10:54:00
7:15 AM,60.1,55.8,86,30.08,10.0,ENE,8.1,-,N/A,,Mostly Cloudy,60,2013-07-03 11:15:00
7:35 AM,60.1,55.6,85,30.08,10.0,ENE,5.8,-,N/A,,Mostly Cloudy,70,2013-07-03 11:35:00
7:54 AM,60.1,55.8,86,30.08,10.0,ENE,5.8,-,N/A,,Overcast,60,2013-07-03 11:54:00
8:15 AM,59.5,56.7,90,30.08,10.0,ENE,6.9,-,N/A,Rain,Rain,60,2013-07-03 12:15:00
8:35 AM,59.4,57.6,94,30.08,7.0,ENE,5.8,-,N/A,Rain,Light Rain,60,2013-07-03 12:35:00
8:55 AM,58.3,57.4,97,30.09,5.0,ENE,4.6,-,N/A,Rain,Heavy Rain,60,2013-07-03 12:55:00
9:15 AM,58.1,57.7,99,30.09,3.0,NE,8.1,-,N/A,Rain,Heavy Rain,50,2013-07-03 13:15:00
9:35 AM,59.2,59.0,99,30.09,2.0,ENE,8.1,-,N/A,Rain,Heavy Rain,60,2013-07-03 13:35:00
9:55 AM,59.9,59.9,100,30.10,4.0,ENE,4.6,-,N/A,,Light Drizzle,70,2013-07-03 13:55:00
10:15 AM,60.3,60.3,100,30.10,2.5,East,5.8,-,N/A,,Overcast,80,2013-07-03 14:15:00
10:35 AM,60.8,60.8,100,30.10,1.0,ENE,8.1,-,N/A,,Drizzle,70,2013-07-03 14:35:00
10:55 AM,61.0,60.8,99,30.10,2.5,ENE,8.1,-,N/A,Rain,Light Rain,70,2013-07-03 14:55:00
11:15 AM,61.3,60.8,98,30.09,4.0,ENE,4.6,-,N/A,,Overcast,70,2013-07-03 15:15:00
11:35 AM,62.6,61.5,96,30.09,5.0,East,6.9,-,N/A,,Overcast,80,2013-07-03 15:35:00
11:55 AM,63.1,61.7,95,30.09,7.0,East,8.1,-,N/A,,Overcast,80,2013-07-03 15:55:00
12:14 PM,64.6,62.8,94,30.09,7.0,ENE,6.9,-,N/A,,Overcast,60,2013-07-03 16:14:00
12:35 PM,66.6,63.7,90,30.09,7.0,East,9.2,-,N/A,,Overcast,80,2013-07-03 16:35:00
12:55 PM,68.2,64.8,89,30.09,7.0,East,6.9,-,N/A,,Overcast,80,2013-07-03 16:55:00
1:14 PM,69.8,65.5,86,30.08,7.0,ESE,5.8,-,N/A,,Overcast,120,2013-07-03 17:14:00
1:35 PM,71.2,66.0,84,30.08,10.0,East,8.1,-,N/A,,Overcast,100,2013-07-03 17:35:00
1:54 PM,72.5,65.8,80,30.07,10.0,East,8.1,-,N/A,,Overcast,90,2013-07-03 17:54:00
2:15 PM,72.3,64.9,78,30.07,10.0,ESE,6.9,-,N/A,,Overcast,120,2013-07-03 18:15:00
2:35 PM,73.6,64.4,73,30.06,10.0,ESE,5.8,-,N/A,,Mostly Cloudy,120,2013-07-03 18:35:00
2:54 PM,73.9,64.2,72,30.06,10.0,ESE,6.9,-,N/A,,Mostly Cloudy,120,2013-07-03 18:54:00
3:15 PM,75.7,64.8,69,30.05,10.0,South,4.6,-,N/A,,Mostly Cloudy,190,2013-07-03 19:15:00
3:34 PM,74.5,63.5,68,30.05,10.0,Calm,Calm,-,N/A,,Mostly Cloudy,0,2013-07-03 19:34:00
3:55 PM,74.5,63.5,68,30.05,10.0,Calm,Calm,-,N/A,,Mostly Cloudy,0,2013-07-03 19:55:00
4:14 PM,70.2,66.4,88,30.05,3.0,SW,6.9,-,N/A,Rain,Light Rain,230,2013-07-03 20:14:00
4:35 PM,69.6,66.7,91,30.05,10.0,SW,4.6,-,N/A,,Scattered Clouds,220,2013-07-03 20:35:00
4:54 PM,71.2,64.9,80,30.05,10.0,SW,3.5,-,N/A,,Clear,230,2013-07-03 20:54:00
5:15 PM,72.7,64.0,74,30.04,10.0,West,3.5,-,N/A,,Clear,260,2013-07-03 21:15:00
5:34 PM,74.5,65.8,74,30.03,10.0,WSW,4.6,-,N/A,,Clear,250,2013-07-03 21:34:00
5:55 PM,74.5,65.5,73,30.04,10.0,SSW,3.5,-,N/A,,Clear,210,2013-07-03 21:55:00
6:14 PM,75.0,65.8,73,30.04,10.0,SSW,4.6,-,N/A,,Clear,210,2013-07-03 22:14:00
6:35 PM,75.2,64.4,69,30.03,10.0,SW,6.9,-,N/A,,Scattered Clouds,220,2013-07-03 22:35:00
6:55 PM,74.3,62.4,66,30.03,10.0,SSW,8.1,-,N/A,,Scattered Clouds,200,2013-07-03 22:55:00
7:15 PM,73.0,63.7,72,30.03,10.0,SSW,5.8,-,N/A,,Mostly Cloudy,210,2013-07-03 23:15:00
7:34 PM,72.7,63.7,73,30.04,10.0,SW,4.6,-,N/A,,Overcast,230,2013-07-03 23:34:00
7:55 PM,72.0,63.7,75,30.05,10.0,South,8.1,-,N/A,,Overcast,190,2013-07-03 23:55:00
8:12 PM,70.5,63.5,78,30.04,10.0,SSW,4.6,-,N/A,,Mostly Cloudy,200,2013-07-04 00:12:00
8:35 PM,70.5,63.3,78,30.05,10.0,South,5.8,-,N/A,,Scattered Clouds,180,2013-07-04 00:35:00
8:54 PM,68.9,61.7,78,30.04,10.0,South,5.8,-,N/A,,Mostly Cloudy,190,2013-07-04 00:54:00
9:15 PM,68.0,61.7,80,30.05,10.0,SSW,5.8,-,N/A,,Overcast,200,2013-07-04 01:15:00
9:34 PM,66.6,61.2,83,30.05,10.0,Calm,Calm,-,N/A,,Overcast,0,2013-07-04 01:34:00
9:55 PM,65.7,61.2,85,30.05,10.0,Calm,Calm,-,N/A,,Scattered Clouds,0,2013-07-04 01:55:00
10:15 PM,64.6,62.1,92,30.06,7.0,Calm,Calm,-,N/A,,Clear,0,2013-07-04 02:15:00
10:34 PM,64.2,62.2,93,30.07,7.0,Calm,Calm,-,N/A,,Scattered Clouds,0,2013-07-04 02:34:00
10:55 PM,62.8,61.9,97,30.07,5.0,Calm,Calm,-,N/A,,Scattered Clouds,0,2013-07-04 02:55:00
11:14 PM,63.0,62.2,97,30.07,5.0,Calm,Calm,-,N/A,,Clear,0,2013-07-04 03:14:00
11:35 PM,62.8,62.2,98,30.07,4.0,Calm,Calm,-,N/A,,Scattered Clouds,0,2013-07-04 03:35:00
11:55 PM,62.6,62.1,98,30.08,4.0,Calm,Calm,-,N/A,,Clear,0,2013-07-04 03:55:00